| time (UTC) | temp F | wind direction | speed knots | gust knots | rain 1hr in | rain 24hr in | rain mn in | humidity % | barometer mb |
| 20260906214535 | 84 | 102 | 2.6 | 7.0 | 0.00 | 0.01 | 0.01 | 37 | 998.1 |
| 20260906213103 | 84 | 194 | 2.6 | 5.2 | 0.00 | 0.01 | 0.01 | 37 | 998.6 |
| 20260906211530 | 85 | 244 | 2.6 | 7.0 | 0.00 | 0.01 | 0.01 | 37 | 998.7 |
| 20260906210039 | 86 | 92 | 2.6 | 8.7 | 0.00 | 0.01 | 0.01 | 34 | 998.8 |
| 20260906204521 | 89 | 80 | 2.6 | 8.7 | 0.00 | 0.01 | 0.01 | 33 | 998.9 |
| 20260906203019 | 88 | 212 | 2.6 | 8.7 | 0.00 | 0.01 | 0.01 | 32 | 999.2 |
| 20260906201530 | 89 | 35 | 1.7 | 9.6 | 0.01 | 0.01 | 0.01 | 31 | 999.2 |
| 20260906200028 | 91 | 71 | 2.6 | 9.6 | 0.01 | 0.01 | 0.01 | 30 | 999.4 |
| 20260906194521 | 91 | 79 | 2.6 | 7.0 | 0.01 | 0.01 | 0.01 | 29 | 999.5 |
| 20260906193017 | 91 | 171 | 3.5 | 10.4 | 0.01 | 0.01 | 0.01 | 29 | 999.7 |
| 20260906191517 | 90 | 101 | 0.9 | 4.3 | 0.00 | 0.00 | 0.00 | 31 | 999.9 |
| 20260906190040 | 91 | 40 | 1.7 | 7.8 | 0.00 | 0.00 | 0.00 | 34 | 1000.3 |
| 20260906184522 | 88 | 87 | 2.6 | 7.0 | 0.00 | 0.00 | 0.00 | 33 | 1000.6 |
| 20260906183024 | 88 | 296 | 2.6 | 7.8 | 0.00 | 0.00 | 0.00 | 34 | 1000.8 |
| 20260906181530 | 89 | 36 | 1.7 | 7.0 | 0.00 | 0.00 | 0.00 | 34 | 1001.4 |
| 20260906180032 | 86 | 138 | 0.9 | 5.2 | 0.00 | 0.00 | 0.00 | 34 | 1001.8 |
| 20260906174526 | 85 | 40 | 0.9 | 4.3 | 0.00 | 0.00 | 0.00 | 36 | 1002.1 |
| 20260906173021 | 85 | 296 | 0.9 | 2.6 | 0.00 | 0.00 | 0.00 | 40 | 1002.3 |
| 20260906171518 | 84 | 57 | 1.7 | 5.2 | 0.00 | 0.00 | 0.00 | 37 | 1002.5 |
| 20260906170035 | 83 | 336 | 0.9 | 4.3 | 0.00 | 0.00 | 0.00 | 38 | 1002.5 |
| 20260906164527 | 79 | 109 | 0.0 | 3.5 | 0.00 | 0.00 | 0.00 | 42 | 1002.7 |
| 20260906163027 | 79 | 54 | 0.9 | 3.5 | 0.00 | 0.00 | 0.00 | 42 | 1002.8 |
| 20260906161521 | 79 | 42 | 0.9 | 2.6 | 0.00 | 0.00 | 0.00 | 44 | 1002.8 |
| 20260906160029 | 75 | 296 | 0.0 | 3.5 | 0.00 | 0.00 | 0.00 | 48 | 1002.9 |
| 20260906154544 | 74 | 309 | 0.9 | 3.5 | 0.00 | 0.00 | 0.00 | 47 | 1002.7 |
| 20260906153031 | 74 | 43 | 0.9 | 3.5 | 0.00 | 0.00 | 0.00 | 48 | 1002.8 |
| 20260906151526 | 72 | 31 | 0.9 | 3.5 | 0.00 | 0.00 | 0.00 | 51 | 1002.7 |
| 20260906150023 | 71 | 325 | 0.9 | 2.6 | 0.00 | 0.00 | 0.00 | 56 | 1002.6 |
| 20260906144516 | 70 | 299 | 0.9 | 3.5 | 0.00 | 0.00 | 0.00 | 60 | 1002.7 |
| 20260906143039 | 69 | 306 | 0.9 | 3.5 | 0.00 | 0.00 | 0.00 | 66 | 1002.7 |
| 20260906141529 | 67 | 319 | 0.0 | 3.5 | 0.00 | 0.00 | 0.00 | 70 | 1002.8 |
| 20260906140039 | 66 | 273 | 0.9 | 3.5 | 0.00 | 0.00 | 0.00 | 69 | 1002.8 |
| 20260906134519 | 65 | 288 | 0.0 | 2.6 | 0.00 | 0.00 | 0.00 | 73 | 1002.8 |
| 20260906133033 | 63 | 255 | 0.9 | 2.6 | 0.00 | 0.00 | 0.00 | 75 | 1002.7 |
| 20260906131529 | 61 | 276 | 0.9 | 2.6 | 0.00 | 0.00 | 0.00 | 70 | 1002.7 |
| 20260906130039 | 60 | 288 | 0.0 | 0.9 | 0.00 | 0.00 | 0.00 | 70 | 1002.7 |
| 20260906124518 | 60 | 288 | 0.0 | 0.9 | 0.00 | 0.00 | 0.00 | 67 | 1002.5 |
| 20260906123015 | 61 | 288 | 0.0 | 2.6 | 0.00 | 0.00 | 0.00 | 65 | 1002.2 |
| 20260906121526 | 62 | 300 | 0.9 | 6.1 | 0.00 | 0.00 | 0.00 | 62 | 1002.3 |
| 20260906120021 | 61 | 290 | 0.9 | 3.5 | 0.00 | 0.00 | 0.00 | 63 | 1002.3 |
| 20260906114519 | 61 | 285 | 1.7 | 3.5 | 0.00 | 0.00 | 0.00 | 63 | 1002.3 |
| 20260906113042 | 61 | 299 | 0.9 | 2.6 | 0.00 | 0.00 | 0.00 | 62 | 1002.3 |
| 20260906111527 | 62 | 282 | 0.9 | 1.7 | 0.00 | 0.00 | 0.00 | 60 | 1002.3 |
| 20260906110022 | 62 | 292 | 0.9 | 1.7 | 0.00 | 0.00 | 0.00 | 59 | 1002.2 |
| 20260906104516 | 62 | 279 | 0.9 | 2.6 | 0.00 | 0.00 | 0.00 | 60 | 1002.0 |
| 20260906103029 | 63 | 280 | 0.0 | 0.9 | 0.00 | 0.00 | 0.00 | 59 | 1002.2 |
| 20260906101525 | 64 | 289 | 0.0 | 0.9 | 0.00 | 0.00 | 0.00 | 57 | 1002.0 |
| 20260906100017 | 65 | 289 | 0.0 | 1.7 | 0.00 | 0.00 | 0.00 | 55 | 1002.1 |
| 20260906094525 | 65 | 284 | 0.0 | 0.9 | 0.00 | 0.00 | 0.00 | 54 | 1001.9 |
| 20260906093028 | 65 | 286 | 0.0 | 2.6 | 0.00 | 0.00 | 0.00 | 54 | 1001.8 |
| 20260906091528 | 65 | 264 | 0.0 | 0.9 | 0.00 | 0.00 | 0.00 | 54 | 1001.9 |
| 20260906090022 | 65 | 174 | 0.0 | 1.7 | 0.00 | 0.00 | 0.00 | 56 | 1001.8 |
| 20260906084522 | 64 | 180 | 0.0 | 1.7 | 0.00 | 0.00 | 0.00 | 57 | 1001.6 |
| 20260906083016 | 64 | 180 | 0.0 | 0.9 | 0.00 | 0.00 | 0.00 | 59 | 1001.9 |
| 20260906081534 | 65 | 180 | 0.0 | 0.9 | 0.00 | 0.00 | 0.00 | 58 | 1002.0 |
| 20260906080021 | 65 | 222 | 0.0 | 0.0 | 0.00 | 0.00 | 0.00 | 58 | 1002.0 |
| 20260906074517 | 65 | 180 | 0.0 | 1.7 | 0.00 | 0.00 | 0.00 | 57 | 1002.1 |
| 20260906073033 | 66 | 180 | 0.0 | 1.7 | 0.00 | 0.00 | 0.00 | 56 | 1001.9 |
| 20260906071525 | 66 | 231 | 0.0 | 1.7 | 0.00 | 0.00 | 0.00 | 56 | 1001.9 |
| 20260906070021 | 66 | 236 | 0.0 | 0.0 | 0.00 | 0.00 | 0.00 | 56 | 1001.6 |
| 20260906064516 | 67 | 273 | 0.0 | 3.5 | 0.00 | 0.00 | 0.00 | 56 | 1001.5 |
| 20260906063031 | 67 | 286 | 0.0 | 1.7 | 0.00 | 0.00 | 0.00 | 57 | 1001.4 |
| 20260906061529 | 66 | 292 | 0.0 | 1.7 | 0.00 | 0.00 | 0.00 | 59 | 1001.6 |
| 20260906060022 | 66 | 344 | 0.0 | 2.6 | 0.00 | 0.00 | 0.00 | 60 | 1001.7 |
| 20260906054518 | 68 | 88 | 1.7 | 3.5 | 0.00 | 0.00 | 0.00 | 55 | 1001.8 |
| 20260906053014 | 70 | 297 | 0.9 | 2.6 | 0.00 | 0.00 | 0.00 | 55 | 1001.8 |
| 20260906051532 | 70 | 339 | 0.0 | 0.9 | 0.00 | 0.00 | 0.00 | 57 | 1001.7 |
| 20260906050048 | 70 | 30 | 0.0 | 0.9 | 0.00 | 0.00 | 0.00 | 62 | 1001.6 |
| 20260906044521 | 70 | 45 | 0.0 | 1.7 | 0.00 | 0.00 | 0.00 | 66 | 1001.8 |
| 20260906043107 | 70 | 77 | 0.0 | 0.9 | 0.00 | 0.00 | 0.00 | 66 | 1001.8 |
| 20260906041530 | 70 | 76 | 0.0 | 0.9 | 0.00 | 0.00 | 0.00 | 67 | 1001.9 |
| 20260906040024 | 70 | 76 | 0.0 | 0.0 | 0.00 | 0.00 | 0.00 | 64 | 1002.0 |
| 20260906034523 | 71 | 76 | 0.0 | 1.7 | 0.00 | 0.00 | 0.00 | 61 | 1002.1 |
| 20260906033021 | 74 | 93 | 0.0 | 10.4 | 0.00 | 0.00 | 0.00 | 56 | 1002.2 |
| 20260906031536 | 75 | 30 | 0.9 | 3.5 | 0.00 | 0.00 | 0.00 | 36 | 1001.8 |
| 20260906030027 | 74 | 102 | 0.0 | 1.7 | 0.00 | 0.00 | 0.00 | 37 | 1001.0 |
| 20260906024520 | 75 | 309 | 0.9 | 1.7 | 0.00 | 0.00 | 0.00 | 35 | 1000.7 |
| 20260906023107 | 77 | 180 | 0.0 | 0.9 | 0.00 | 0.00 | 0.00 | 33 | 1000.5 |
| 20260906021529 | 76 | 180 | 0.0 | 0.0 | 0.00 | 0.00 | 0.00 | 34 | 1000.5 |
| 20260906020022 | 77 | 180 | 0.0 | 0.9 | 0.00 | 0.00 | 0.00 | 33 | 1000.2 |
| 20260906014516 | 78 | 176 | 0.0 | 1.7 | 0.00 | 0.00 | 0.00 | 32 | 1000.2 |
| 20260906013013 | 79 | 209 | 0.0 | 2.6 | 0.00 | 0.00 | 0.00 | 31 | 1000.1 |
| 20260906011528 | 80 | 166 | 0.0 | 1.7 | 0.00 | 0.00 | 0.00 | 30 | 1000.1 |
| 20260906010028 | 81 | 180 | 0.9 | 4.3 | 0.00 | 0.00 | 0.00 | 29 | 1000.1 |
| 20260906004523 | 82 | 157 | 0.9 | 4.3 | 0.00 | 0.00 | 0.00 | 29 | 1000.1 |
| 20260906003015 | 83 | 194 | 0.9 | 4.3 | 0.00 | 0.00 | 0.00 | 28 | 1000.0 |
| 20260906001512 | 84 | 95 | 0.9 | 3.5 | 0.00 | 0.00 | 0.00 | 29 | 1000.1 |
| 20260906000030 | 84 | 200 | 1.7 | 4.3 | 0.00 | 0.00 | 0.00 | 28 | 999.9 |
| 20260905234521 | 84 | 125 | 1.7 | 5.2 | 0.00 | 0.00 | 0.00 | 28 | 999.7 |
| 20260905233025 | 85 | 194 | 1.7 | 4.3 | 0.00 | 0.00 | 0.00 | 27 | 999.7 |
| 20260905231513 | 84 | 57 | 0.9 | 3.5 | 0.00 | 0.00 | 0.00 | 27 | 999.8 |
| 20260905230026 | 85 | 271 | 0.0 | 2.6 | 0.00 | 0.00 | 0.00 | 27 | 999.8 |
| 20260905224526 | 86 | 29 | 0.0 | 3.5 | 0.00 | 0.00 | 0.00 | 25 | 999.7 |
| 20260905223019 | 86 | 307 | 0.9 | 4.3 | 0.00 | 0.00 | 0.00 | 27 | 999.7 |
| 20260905221557 | 86 | 82 | 0.9 | 3.5 | 0.00 | 0.00 | 0.00 | 27 | 999.8 |
| 20260905220029 | 86 | 52 | 0.9 | 2.6 | 0.00 | 0.00 | 0.00 | 28 | 999.8 |